Wind_Speed
25 25 24 23 23 22 22 23 24 23 22 22 21 21 21 21 22 20 18 17 17 17 19 21 23 23 24 24 24 24 24 25 25 25 26 26 27 28 29 29 29 30 30 30 30 30 31 31 31 31 32 32 33 33 33 34 34 35 35 36 36 36 36 36 35 34 35 36 36 36 37 38 38 39 40 40 40 40 40 40 39 39 39 39 40
27 26 26 26 26 25 24 25 26 25 25 25 24 23 23 22 22 22 21 19 18 17 18 19 21 22 22 23 23 24 25 25 26 26 27 27 28 29 30 31 32 32 33 33 33 33 33 34 34 34 34 34 35 35 35 36 36 37 37 37 38 38 38 38 38 37 38 39 40 40 40 41 41 41 42 42 43 43 43 43 42 42 41 40 40
28 27 27 27 28 28 27 27 27 27 27 27 26 26 25 24 23 23 23 23 23 22 21 20 20 21 22 23 23 23 24 25 26 26 27 28 29 30 31 32 33 34 35 35 36 36 36 36 36 36 37 37 37 37 38 38 39 39 40 40 40 40 40 40 40 40 39 40 42 43 43 43 44 44 44 44 44 45 45 45 45 44 43 42 41
31 31 31 30 30 30 30 30 30 29 29 29 28 28 28 27 26 24 24 23 23 24 24 22 21 22 23 24 24 25 26 26 26 27 28 28 29 29 30 31 33 34 35 35 36 37 37 37 38 38 38 38 39 39 39 39 39 40 41 42 42 43 43 42 42 42 41 41 42 44 45 46 46 47 47 47 47 47 47 47 47 47 46 45 44
35 35 35 33 32 33 33 34 33 32 32 32 31 30 30 29 28 28 27 25 24 25 26 26 26 26 26 26 26 27 28 29 30 29 30 30 29 30 30 32 33 34 34 35 36 36 37 38 38 38 38 38 38 39 39 39 39 39 39 40 41 42 43 43 43 42 41 40 40 43 46 47 47 48 49 50 49 49 49 49 49 49 49 48 47
38 38 37 35 34 36 38 38 37 37 36 36 35 34 33 31 30 30 30 29 29 30 30 29 29 30 31 30 30 29 29 30 31 31 32 32 32 32 32 33 34 34 34 35 35 35 36 37 37 37 37 37 37 37 37 37 37 37 37 37 39 40 41 43 43 43 41 39 37 39 42 45 46 47 49 50 51 51 52 52 52 52 51 50 50
41 41 40 38 38 39 40 40 40 40 39 38 38 37 36 35 33 33 33 33 35 36 35 32 31 31 33 35 35 34 33 33 34 33 33 34 35 35 35 35 36 36 36 35 35 35 35 36 37 37 37 36 36 35 34 33 32 32 33 35 36 37 38 39 41 42 41 39 37 37 38 41 43 44 46 48 51 51 52 53 54 54 55 54 53
43 44 44 44 43 42 42 41 41 41 40 40 40 40 40 38 37 36 36 37 38 39 38 38 37 35 35 36 36 34 34 35 38 37 36 35 37 38 39 38 38 38 37 37 36 36 36 36 37 37 37 36 35 34 33 31 31 31 31 33 34 35 36 36 37 38 39 39 37 36 37 38 40 41 42 45 48 50 52 54 54 55 56 57 56
44 45 46 47 47 46 44 43 42 42 42 41 42 42 43 42 41 40 40 40 41 42 41 41 42 40 39 39 39 39 39 39 39 40 40 40 40 41 41 40 39 39 39 38 38 38 37 37 37 38 38 37 36 35 34 33 33 32 32 33 34 34 34 35 36 36 37 38 37 36 36 37 39 40 40 42 45 48 50 53 55 55 56 57 57
46 46 47 47 48 48 48 47 47 46 45 45 45 45 46 46 46 45 44 44 44 44 43 43 44 43 43 42 41 41 42 41 40 40 42 43 42 42 43 43 41 40 40 40 40 40 40 39 39 39 39 40 39 39 38 36 35 35 34 34 35 35 35 36 37 37 38 38 38 38 37 37 39 41 42 43 44 47 49 51 54 56 56 57 57
52 52 51 52 52 52 52 52 52 52 51 50 49 49 49 49 49 49 49 48 47 46 46 46 48 48 47 45 44 42 41 41 41 40 40 42 43 44 45 44 43 41 40 40 40 41 42 42 42 41 41 41 41 42 42 41 39 38 37 37 37 37 37 38 38 39 39 40 41 41 42 41 42 43 45 46 47 48 50 51 53 55 57 58 58
57 57 57 57 57 57 56 56 56 55 55 54 53 52 52 52 52 52 52 52 52 51 50 50 51 49 47 46 47 48 48 46 45 44 44 43 43 44 45 45 44 43 42 41 41 41 42 43 44 45 45 44 44 44 45 45 44 42 41 40 40 40 41 41 41 41 41 42 43 44 45 46 46 47 49 50 51 52 53 54 55 56 57 59 60
59 59 60 60 60 60 60 59 59 58 57 56 55 55 55 55 55 55 55 56 56 56 54 54 54 52 50 49 49 50 52 53 52 51 49 45 43 45 45 44 45 46 46 46 45 43 42 42 44 47 48 47 47 47 47 48 47 46 45 44 44 44 44 44 45 45 45 45 46 47 48 50 50 50 51 53 55 56 56 57 58 58 59 60 61
60 60 60 60 60 60 60 60 59 59 58 58 57 58 58 58 58 58 58 58 58 58 57 57 56 56 55 54 51 49 49 50 51 52 51 48 45 43 43 44 47 49 50 50 49 48 46 44 45 47 49 50 50 51 51 51 50 50 49 47 47 47 47 47 48 49 49 49 50 51 51 53 54 54 54 55 58 59 60 60 60 61 61 62 63
59 60 60 60 60 60 60 60 60 59 60 60 60 60 60 60 60 59 59 59 59 58 58 57 57 57 56 54 53 52 49 46 46 47 47 47 46 45 47 49 51 50 51 51 50 50 50 49 47 47 49 52 54 54 54 54 53 52 52 50 50 50 51 50 50 51 52 52 53 55 55 56 57 58 58 58 60 61 63 64 64 63 63 63 64
59 59 60 60 60 60 60 60 60 60 60 60 60 61 61 60 60 60 60 60 59 58 58 57 57 57 57 55 53 53 53 52 52 51 48 47 46 47 48 50 50 50 51 52 52 51 52 52 52 50 50 52 54 54 54 55 55 54 54 53 53 54 55 54 53 53 54 56 57 58 59 59 60 61 62 63 63 64 65 66 67 67 65 64 64
57 58 58 58 58 58 59 59 59 60 60 60 60 60 60 60 60 60 61 60 60 60 59 59 59 59 57 56 54 53 54 56 57 57 56 53 50 49 49 50 51 51 52 53 54 54 54 54 55 55 54 54 54 54 54 54 54 54 55 55 56 57 58 58 57 57 58 60 61 62 62 62 63 64 66 66 67 68 69 69 69 69 67 65 64
56 56 56 57 57 57 58 58 59 59 59 59 59 59 59 58 58 59 59 59 59 59 59 59 60 59 57 56 55 54 54 54 55 56 56 54 52 50 50 51 52 52 51 52 53 55 55 55 56 57 57 58 58 58 58 57 56 55 56 57 58 59 60 60 61 62 63 65 65 65 64 64 64 66 68 69 71 73 74 72 70 68 66 65 64
56 55 55 56 57 58 58 58 58 58 58 58 58 58 56 55 55 55 55 54 54 55 55 55 56 56 56 55 55 54 54 54 53 53 53 52 51 50 49 49 50 51 50 50 50 51 52 53 54 56 57 59 60 61 61 60 59 57 57 58 60 61 62 63 65 67 69 69 68 67 65 65 66 68 70 72 75 76 75 72 69 65 63 62 62
56 56 56 56 57 58 58 58 57 57 57 57 57 56 54 54 53 53 52 51 50 51 53 54 54 54 55 54 53 52 51 52 52 52 51 50 48 46 45 46 47 48 48 48 48 47 48 49 50 52 54 55 57 58 60 60 59 58 58 60 61 63 64 67 69 72 72 70 67 66 66 67 69 71 73 76 77 75 71 68 66 64 62 62 62
56 56 56 56 57 58 58 57 57 56 56 56 55 55 54 54 53 52 51 50 49 50 51 51 51 51 50 48 47 47 48 48 48 47 43 40 37 36 37 40 43 45 46 47 48 49 49 49 49 50 51 51 52 54 55 57 58 58 60 62 63 65 68 70 72 72 70 68 67 67 68 70 71 74 77 78 75 71 68 66 66 64 62 61 62
54 54 54 54 55 56 57 57 56 56 56 56 55 55 55 54 53 53 52 51 50 50 49 48 47 46 43 41 39 39 40 41 42 40 37 33 32 32 33 36 39 41 43 45 46 48 50 51 52 52 53 52 53 53 55 57 59 60 61 63 64 67 69 70 70 69 69 68 69 69 71 73 75 76 75 73 70 67 66 65 64 62 60 59 59
52 52 52 53 54 55 56 56 56 55 55 55 55 55 55 55 54 54 53 52 50 48 47 46 44 42 39 38 37 37 37 38 39 40 40 39 39 39 38 37 37 37 38 41 44 45 47 49 51 53 55 55 56 56 57 59 59 60 61 62 64 66 67 68 68 69 70 70 71 72 74 75 75 72 69 67 65 63 62 62 62 61 60 59 58
54 54 54 54 55 56 56 56 56 56 55 55 55 55 55 55 55 55 54 51 47 45 44 42 39 36 36 38 39 41 43 45 46 46 47 47 47 46 45 45 44 43 41 41 42 44 46 48 50 52 53 54 55 56 57 58 59 60 62 64 65 67 68 68 69 70 70 72 73 74 73 71 68 65 63 61 60 60 60 61 61 61 61 59 58
57 57 58 58 58 58 58 58 57 57 57 56 56 56 55 54 53 52 49 45 41 39 38 35 34 33 34 35 36 37 40 42 45 47 47 47 47 47 47 48 49 50 50 48 47 47 48 50 51 52 53 54 56 57 58 59 61 64 65 67 68 68 68 68 69 71 72 73 72 69 66 63 61 59 57 57 57 57 57 57 58 58 58 57 56
60 59 59 59 58 57 56 56 55 55 54 54 53 53 52 50 46 43 41 38 35 34 34 34 33 34 34 34 34 35 36 37 40 41 42 42 43 43 44 45 46 49 51 52 52 51 52 53 54 55 56 57 58 60 61 63 65 66 66 67 67 68 69 70 71 72 70 67 63 60 57 56 55 54 53 53 53 53 53 53 53 54 54 53 52
57 56 55 53 50 48 47 47 47 47 47 46 45 43 41 37 34 33 33 33 33 36 37 36 35 34 35 36 37 37 37 37 36 37 38 39 40 41 42 43 44 45 47 49 51 52 54 56 57 57 58 59 60 62 63 64 64 64 65 67 68 70 70 70 69 66 62 57 54 52 52 51 50 49 49 49 49 50 51 52 51 50 50 50 49
50 48 45 42 39 37 37 37 37 37 36 35 34 31 28 26 26 27 29 30 34 39 40 36 35 36 37 37 36 35 35 35 36 38 40 42 43 44 44 44 45 46 48 50 52 53 54 55 56 57 58 59 61 62 63 64 65 67 68 70 69 68 65 62 58 55 52 49 48 48 47 47 46 46 47 47 48 50 51 51 49 47 47 47 47
40 37 34 32 31 30 29 29 29 28 27 27 26 26 27 27 27 27 28 30 33 37 38 36 36 37 36 36 36 36 37 38 40 42 44 45 45 46 46 45 46 47 49 51 52 52 53 54 56 57 59 60 62 63 64 65 66 66 66 65 62 59 55 52 50 48 46 45 44 44 44 44 45 46 47 47 48 49 49 48 46 44 43 44 44
30 28 27 27 27 26 26 25 24 24 24 24 24 25 28 29 28 28 30 31 32 35 36 36 36 36 36 36 36 36 37 38 40 41 42 44 44 45 45 45 46 48 49 51 52 53 54 56 57 58 60 60 61 62 62 62 61 60 59 57 55 52 49 47 45 43 42 42 41 41 43 45 46 47 46 46 45 45 45 45 44 43 43 43 43
24 24 25 25 25 24 23 23 22 22 23 23 23 23 25 27 28 27 27 28 31 34 35 34 33 33 33 32 32 33 35 37 38 39 40 41 41 42 44 45 46 48 49 50 52 54 55 56 57 57 57 57 57 57 57 58 57 56 54 52 50 47 45 43 41 39 39 39 40 42 44 45 45 45 44 43 41 41 42 43 43 43 43 43 44
22 23 24 23 22 21 21 21 21 21 21 20 20 20 21 22 24 24 25 27 30 31 31 31 30 29 30 30 32 34 36 36 36 37 37 38 40 41 43 44 45 46 47 49 51 52 53 54 54 53 53 53 54 55 55 55 53 51 48 46 45 43 41 39 38 37 37 39 41 44 44 44 43 42 40 40 39 39 41 42 43 43 42 41 41
21 21 22 22 21 21 21 20 19 18 18 19 19 20 19 20 23 25 26 27 27 27 26 26 27 27 29 30 32 32 32 33 33 34 35 37 38 40 41 42 44 45 46 47 49 50 50 51 51 51 52 53 52 51 50 48 47 44 42 41 40 39 38 37 36 37 38 40 41 42 41 40 39 38 38 37 37 38 39 40 40 40 39 38 38
18 19 21 21 21 20 20 19 18 18 19 21 22 23 23 24 24 24 23 23 22 22 23 23 24 26 26 27 28 28 29 29 31 32 33 35 36 37 39 40 42 43 44 46 47 48 49 50 51 51 51 49 46 42 41 41 40 38 37 37 36 36 35 36 36 36 37 38 38 37 36 36 35 35 35 35 35 35 37 38 39 39 39 39 38
17 19 20 21 20 19 19 19 18 20 23 24 25 25 24 23 22 20 19 19 19 19 20 20 21 22 23 24 25 26 26 27 28 30 31 32 33 34 35 36 38 39 41 43 45 47 48 49 49 47 44 41 38 35 35 35 34 32 32 32 32 31 31 31 32 33 33 33 33 32 31 31 32 32 33 33 34 35 36 37 38 37 36 36 35
19 20 20 20 20 22 22 21 20 22 23 23 23 22 21 20 19 18 18 18 17 16 16 17 18 19 20 21 22 23 24 26 28 29 29 30 30 31 32 33 35 36 39 41 43 44 45 45 44 41 38 36 34 32 31 31 29 27 28 28 28 26 26 26 27 27 28 28 28 28 28 29 30 32 33 34 34 34 33 33 32 31 30 29 29
20 19 18 18 20 22 23 23 22 23 23 23 22 21 20 20 20 20 18 16 14 14 15 16 17 17 18 19 20 22 24 26 27 27 28 28 28 29 31 33 35 37 39 39 40 40 40 40 39 37 35 33 31 29 28 27 26 26 28 28 25 23 21 21 22 22 23 25 26 26 27 28 30 32 33 32 30 29 27 26 25 25 25 26 27
21 19 19 19 19 20 22 23 22 23 23 23 22 22 22 22 21 18 15 13 13 14 14 13 13 14 16 19 21 23 24 25 26 26 27 27 29 31 33 34 36 37 37 36 36 35 36 36 35 33 31 28 26 25 25 25 26 27 28 26 22 18 17 18 19 20 22 24 25 26 26 27 29 29 28 25 23 22 21 20 21 21 23 24 26
22 22 22 22 22 22 23 23 23 23 22 22 22 22 21 19 16 14 13 13 13 12 11 11 12 14 17 19 21 22 23 24 25 26 27 28 30 32 33 34 35 35 34 33 32 33 34 33 31 28 25 23 22 22 22 24 25 25 23 20 17 15 15 16 18 19 20 22 23 24 25 25 25 23 20 17 16 15 14 16 17 19 21 23 24
24 25 25 25 25 24 23 23 22 22 21 20 19 18 16 14 14 13 13 12 10 8 9 11 13 15 17 18 20 21 22 23 24 25 27 28 30 31 32 33 34 34 32 30 29 30 31 29 27 23 21 20 20 20 20 21 21 20 17 14 12 12 13 14 15 17 18 19 20 21 21 20 18 15 12 11 10 8 8 9 10 12 15 17 20
24 24 24 24 24 23 22 22 22 20 19 17 15 14 14 14 13 12 10 8 7 8 11 13 14 15 15 16 18 20 20 21 23 24 26 27 29 30 31 33 34 34 31 28 28 28 27 26 23 20 18 17 16 16 16 16 16 14 11 9 8 9 12 13 14 16 17 17 17 16 14 12 10 8 7 7 5 3 1 1 3 6 11 16 20
21 22 22 21 22 22 22 21 19 17 16 15 14 14 14 13 10 8 6 6 8 9 11 11 12 12 13 15 17 18 20 21 22 24 26 27 28 30 31 33 35 34 30 28 27 26 25 23 20 17 14 13 13 13 13 14 12 10 8 7 7 10 12 13 13 14 14 13 11 9 7 5 4 3 3 3 5 5 5 5 7 9 13 18 21
19 19 20 20 21 20 19 17 16 15 15 14 14 13 11 8 6 5 6 8 8 9 8 8 9 10 12 14 16 18 19 21 22 24 25 27 28 30 31 33 35 34 31 28 27 27 25 22 19 16 13 11 12 13 14 13 10 7 8 6 8 11 12 12 12 12 10 7 5 4 3 2 1 1 1 1 4 7 8 8 9 12 15 19 21
15 16 17 17 17 17 16 15 15 14 14 14 13 11 8 6 6 6 7 8 7 6 6 7 9 11 12 14 16 18 19 21 22 24 25 27 28 30 31 33 34 34 31 28 28 27 24 21 18 15 13 12 13 14 13 10 7 7 8 7 8 10 10 10 11 9 6 3 1 4 5 4 4 3 3 3 2 5 8 10 11 14 17 20 22
12 13 13 13 14 14 14 14 14 14 14 13 11 8 7 7 7 7 7 6 5 4 6 8 10 12 13 15 17 18 20 21 22 24 25 27 28 30 32 33 35 34 32 29 27 27 25 20 16 14 13 12 13 13 11 7 5 7 7 6 6 7 7 8 8 5 2 2 5 6 7 7 6 6 6 7 6 5 9 13 16 19 21 22 23
11 12 12 13 13 13 14 14 14 14 13 11 9 8 8 8 7 6 6 4 3 5 6 8 10 12 14 16 17 19 21 22 23 24 25 27 28 30 32 33 35 35 34 30 28 27 26 21 15 13 12 12 12 12 9 4 5 6 6 4 3 4 4 5 6 5 4 6 9 9 9 9 9 8 8 9 9 9 10 15 20 23 23 23 21
11 12 12 13 13 13 13 13 13 13 12 10 9 9 9 7 6 5 4 3 4 5 6 8 10 12 14 16 18 20 21 22 23 24 25 26 28 29 31 33 35 36 35 33 30 28 27 23 16 11 10 10 10 10 7 4 6 7 6 4 1 3 3 5 6 5 7 11 13 13 13 13 13 11 10 10 11 11 12 15 19 21 22 22 21
9 10 11 12 12 12 12 12 12 12 11 11 10 10 8 7 6 5 4 4 4 5 6 8 10 12 14 17 19 20 21 22 23 24 25 26 27 29 30 32 34 36 36 35 32 29 28 26 19 11 8 8 8 9 7 4 6 8 7 5 2 3 4 5 7 6 11 16 17 16 16 15 13 11 10 11 13 14 15 16 18 19 20 21 22
7 9 10 10 10 11 11 11 11 11 11 11 11 10 9 8 6 6 5 5 5 5 7 8 10 12 14 17 19 20 21 22 23 24 25 26 27 28 30 31 33 35 36 36 34 30 28 27 22 14 9 7 7 7 7 4 7 9 7 5 3 2 4 6 6 8 14 18 18 17 16 15 12 12 14 15 15 16 17 18 19 21 21 21 21
5 8 9 10 10 10 11 11 12 13 13 12 12 11 10 8 8 7 7 6 6 7 7 9 10 12 14 16 18 20 22 23 23 24 25 25 26 27 29 30 32 34 35 36 36 32 29 28 25 18 10 7 6 6 4 4 7 10 8 6 4 4 4 6 7 10 16 18 16 16 16 15 13 13 15 16 15 16 17 17 18 19 19 18 17
6 7 9 10 11 11 12 13 14 14 14 14 13 12 11 10 9 9 8 8 8 8 8 9 11 12 13 16 18 19 21 23 23 24 25 25 25 27 28 28 30 33 34 35 36 34 30 28 26 21 13 8 6 5 3 3 7 11 10 7 6 7 6 7 8 11 15 16 14 14 16 16 14 13 14 14 13 12 11 11 12 13 12 12 11
Wind_Direction
256 257 258 256 252 252 256 264 269 270 271 273 276 279 281 280 279 277 276 275 277 280 281 280 279 277 275 275 274 273 272 270 268 267 267 266 265 264 264 265 265 265 265 265 265 265 265 265 265 265 265 265 266 267 267 267 265 264 263 263 262 261 260 259 259 261 262 261 261 262 263 264 265 266 266 267 266 265 264 264 263 264 264 264 266
255 256 256 255 252 250 252 260 268 273 274 275 277 278 280 281 279 275 273 272 275 280 284 284 282 281 280 278 277 276 274 273 272 270 269 268 267 266 265 264 264 265 265 265 266 266 266 267 267 268 268 268 269 269 270 270 270 270 269 268 266 265 264 263 263 265 266 265 264 264 263 263 264 265 265 266 267 268 267 267 266 265 265 265 265
257 255 255 255 254 254 255 261 270 277 278 277 278 278 278 280 280 278 276 274 274 277 280 281 279 279 279 278 277 277 276 276 274 273 271 269 268 267 267 266 265 265 265 266 266 267 267 267 267 268 269 269 270 270 271 271 272 273 273 273 272 270 269 267 266 266 268 268 267 267 267 266 266 266 265 265 266 267 267 268 268 267 267 266 265
259 257 254 252 252 255 258 260 267 275 277 277 277 277 276 276 278 280 280 279 280 280 279 276 275 277 277 275 274 273 273 274 273 272 270 269 269 268 267 266 265 265 265 265 266 266 267 268 268 268 268 269 269 270 270 270 271 271 272 273 274 274 273 272 271 270 270 271 270 269 269 270 270 270 269 268 267 267 267 267 268 268 268 267 266
262 260 258 255 254 256 260 261 264 270 275 275 274 275 275 275 276 278 279 281 282 281 279 276 273 273 275 275 274 273 271 272 271 270 268 267 267 268 268 267 265 265 265 265 266 266 267 267 267 267 267 268 268 268 268 269 269 269 269 270 271 272 273 273 274 273 272 273 273 272 272 272 272 273 273 272 271 270 269 268 268 268 268 268 268
264 263 262 259 256 257 259 262 264 267 271 271 271 273 274 275 275 275 276 277 276 275 276 275 272 272 273 274 274 274 272 272 272 270 269 268 267 266 266 266 265 265 267 268 268 268 268 268 267 266 266 266 266 266 266 266 266 266 266 267 267 268 270 271 272 273 274 274 275 275 274 274 274 274 275 274 273 273 272 271 270 269 269 269 269
262 261 260 258 256 256 257 260 262 265 268 269 271 273 274 275 275 275 273 275 277 277 276 274 272 273 275 275 275 273 273 274 272 271 271 272 271 269 267 265 265 265 267 269 270 271 271 271 269 267 266 264 262 261 260 260 261 263 264 265 266 266 267 269 270 271 273 275 277 278 277 277 276 276 276 276 275 275 274 273 272 272 271 270 269
259 257 257 256 255 255 255 257 259 263 265 268 270 272 273 273 274 274 273 275 278 278 276 275 276 277 277 277 275 272 274 277 274 271 272 274 274 272 269 266 264 263 265 267 269 270 272 272 271 268 265 262 259 256 254 255 258 261 264 265 266 267 268 269 270 271 272 273 275 278 279 280 280 280 280 279 277 276 276 274 274 273 272 271 270
259 257 256 255 255 255 256 257 258 261 263 265 267 269 270 271 272 272 272 274 276 277 277 278 279 278 277 277 275 273 276 278 274 271 272 275 275 273 269 265 262 260 262 264 266 267 269 270 270 269 267 263 259 256 255 257 259 262 265 267 268 269 270 272 273 273 273 273 274 276 278 280 282 284 284 283 281 279 278 276 275 274 273 272 272
258 259 258 258 258 258 259 260 262 264 265 266 267 268 268 269 270 271 272 273 274 276 278 278 277 277 277 278 277 275 275 275 272 270 271 272 273 272 269 265 261 259 259 261 263 265 266 267 267 268 267 265 262 259 258 260 262 264 266 267 269 270 272 274 275 276 276 276 277 278 279 281 283 285 285 285 283 281 280 278 276 275 274 273 272
258 260 261 261 260 261 262 263 266 268 269 270 271 270 269 269 269 270 271 272 273 274 275 276 276 276 276 276 275 274 275 275 273 273 273 272 270 269 268 266 262 260 260 261 263 264 266 267 266 265 265 265 263 262 261 261 263 264 266 267 268 270 272 274 276 277 278 279 280 281 282 283 285 286 286 285 284 282 281 279 277 276 275 274 272
259 260 261 262 263 263 263 264 266 268 270 272 272 272 272 271 270 271 271 271 272 272 273 274 275 276 276 276 274 272 273 274 275 275 277 276 270 265 265 265 264 263 263 263 264 266 267 267 267 265 264 264 263 263 263 262 262 263 265 266 268 269 272 274 275 276 277 279 281 282 284 285 285 286 286 286 284 282 280 279 278 277 276 274 273
260 261 262 263 263 264 264 265 265 266 268 269 270 271 272 272 271 271 271 271 271 272 274 274 275 275 276 276 276 276 274 273 273 274 275 276 272 264 262 264 266 266 267 267 266 266 267 269 268 266 265 264 264 264 264 263 263 263 264 265 267 269 271 274 276 277 277 279 281 283 284 285 286 286 286 286 285 284 281 279 277 276 275 274 273
262 262 262 262 262 262 263 263 264 266 267 268 269 270 271 271 271 271 271 271 271 272 273 274 274 274 274 274 275 276 276 273 271 271 270 271 271 263 260 267 270 268 267 267 266 264 265 268 270 268 266 265 266 266 265 263 263 263 263 264 266 268 271 274 277 278 278 279 282 283 284 284 285 285 284 285 285 284 283 281 278 276 274 272 271
263 263 263 262 262 262 262 262 263 264 266 267 268 270 270 270 271 271 271 271 271 271 272 272 273 272 272 272 270 271 273 273 272 273 271 269 266 261 263 271 273 269 266 265 263 262 262 265 269 270 268 266 266 267 266 264 263 262 262 263 265 267 270 274 278 279 279 280 282 284 284 283 283 283 283 283 283 283 283 282 280 277 274 271 270
265 265 265 265 265 264 264 264 264 264 265 266 267 268 268 269 269 269 270 270 271 271 271 271 271 270 270 271 270 269 270 271 272 274 274 272 268 265 268 274 274 271 268 265 262 262 262 263 266 269 270 267 266 267 267 266 265 263 262 262 264 266 268 273 278 281 281 282 283 283 283 283 282 283 283 283 283 283 283 282 281 279 275 272 269
265 265 265 265 266 266 266 266 266 266 266 265 265 266 266 267 268 268 268 269 269 269 269 269 269 269 270 270 271 270 270 271 271 272 273 273 272 271 272 274 275 274 272 267 264 263 263 264 265 267 268 267 266 267 269 269 267 265 263 261 262 265 267 271 277 281 282 283 283 283 282 281 282 282 283 284 284 284 284 284 282 280 276 272 268
263 263 264 264 264 265 265 265 266 266 266 266 266 266 266 266 267 267 267 267 268 268 269 269 268 269 270 271 272 272 271 271 272 272 272 273 273 272 272 272 272 273 273 271 269 267 266 267 267 267 268 267 266 267 269 271 271 269 265 262 262 264 267 270 276 280 283 284 283 282 280 280 280 281 283 284 285 286 286 284 281 278 275 272 268
264 264 264 264 264 264 265 265 265 265 266 266 266 266 266 266 266 266 265 265 266 267 267 268 269 270 271 272 272 272 273 273 273 273 273 272 270 270 270 270 269 269 271 272 271 269 268 268 269 269 269 268 268 268 269 271 271 269 266 264 264 266 268 271 275 279 282 283 282 281 279 279 280 281 282 284 285 284 283 280 277 274 272 270 268
265 265 265 265 265 265 265 265 266 266 266 266 266 266 267 267 266 266 266 265 265 264 264 265 268 270 271 272 273 273 273 273 273 272 271 268 267 267 268 267 266 266 268 270 270 270 269 269 270 270 270 270 271 271 272 273 272 270 268 267 267 268 270 273 276 279 281 282 280 279 279 280 281 281 282 283 283 281 278 275 272 271 269 268 267
264 264 264 264 265 265 265 265 265 265 264 264 265 265 265 266 266 267 267 266 265 264 265 266 267 269 271 272 273 272 271 270 268 266 264 264 265 268 268 266 265 265 267 268 268 269 270 270 270 269 269 270 271 272 272 273 272 271 270 270 270 272 273 276 277 279 280 280 279 279 279 279 280 281 281 281 280 277 274 272 271 270 268 267 265
263 263 263 263 263 263 263 263 263 262 263 263 263 263 263 263 264 265 265 266 266 266 267 268 268 269 269 268 268 268 268 266 264 260 259 262 269 273 272 270 269 269 269 270 271 270 270 270 269 268 269 270 271 272 272 273 273 273 274 274 274 274 275 276 277 278 278 278 278 278 279 280 280 280 279 278 276 274 272 271 270 269 267 266 264
264 263 263 263 263 262 262 261 261 261 261 261 261 262 262 261 262 263 264 265 266 266 267 268 268 266 264 262 263 264 264 263 263 263 266 272 276 276 274 273 273 273 274 274 274 274 274 273 271 270 270 270 271 273 273 274 275 275 275 275 274 274 275 276 277 278 278 278 279 280 280 281 280 278 276 274 273 272 271 270 269 269 268 266 265
267 266 265 265 264 263 263 262 261 260 260 260 260 261 261 260 260 261 263 264 265 266 267 265 261 259 260 263 265 265 264 263 264 268 272 276 278 278 276 274 274 275 276 276 276 276 275 275 275 274 274 274 274 274 274 274 274 274 274 273 273 274 276 277 277 278 278 279 280 281 281 279 277 275 274 273 272 271 270 270 269 269 268 266 264
270 269 268 268 267 266 265 263 262 261 260 259 259 259 260 260 260 260 262 262 261 261 259 255 252 254 260 263 265 266 266 265 267 270 273 276 277 277 277 275 273 273 272 273 274 274 273 272 273 274 274 275 276 275 275 274 273 273 274 274 275 276 277 277 277 278 279 281 281 280 278 276 274 273 272 271 270 270 270 270 269 268 266 264 262
270 269 269 268 267 266 264 263 262 260 259 258 257 257 258 259 259 259 258 256 255 255 251 246 248 256 262 265 267 268 268 268 269 270 272 274 276 277 277 276 275 273 271 270 272 273 272 271 271 272 273 274 274 273 273 272 273 274 275 275 276 276 277 278 280 281 281 280 279 277 275 273 273 272 271 270 270 270 270 269 269 268 265 263 261
267 267 266 265 264 264 263 262 260 259 257 255 253 253 254 254 253 249 246 245 248 250 247 245 250 259 265 267 268 268 268 269 269 270 273 275 277 277 278 277 276 275 273 273 273 274 273 272 272 272 273 273 273 272 272 273 274 275 276 277 278 279 280 281 281 281 280 278 276 274 273 272 272 271 271 271 271 270 269 268 269 268 265 261 259
263 262 262 261 261 260 260 259 258 255 252 248 245 245 245 244 241 237 233 234 240 242 239 243 253 261 264 265 266 267 269 269 269 272 274 276 277 277 277 276 275 275 275 275 275 274 273 272 273 273 274 274 275 275 276 277 278 279 279 280 281 282 282 281 280 279 278 276 274 273 272 272 272 273 273 274 273 271 267 265 266 266 264 260 257
259 258 257 255 255 256 256 254 250 244 238 234 232 231 229 229 232 235 232 231 234 236 239 246 255 259 260 262 266 269 271 270 270 272 273 273 274 274 273 274 274 275 276 276 275 275 275 275 275 276 277 278 279 280 280 281 281 282 283 283 283 283 282 281 280 278 276 274 273 272 272 274 276 277 277 277 275 270 264 261 263 264 262 259 258
255 253 251 250 251 252 250 244 236 228 223 225 227 226 223 223 227 233 235 236 238 241 245 250 253 256 259 264 268 271 271 271 273 274 275 275 276 275 275 276 277 277 278 278 279 279 279 279 279 280 281 281 282 282 283 284 285 285 285 285 285 285 284 283 280 278 275 273 273 273 275 278 280 280 279 277 273 267 261 259 261 262 261 259 258
252 249 247 247 246 244 239 230 222 219 222 225 226 224 220 220 223 229 234 239 242 244 245 248 252 258 263 267 269 270 272 275 277 279 280 280 281 281 281 282 283 283 283 283 283 284 283 283 284 284 284 284 284 285 286 287 287 287 287 286 287 286 285 282 279 276 274 274 274 276 279 280 280 280 279 276 271 265 261 259 261 262 261 260 258
248 240 236 234 232 230 226 219 215 219 224 224 220 217 216 220 225 229 233 240 244 246 247 251 257 262 265 267 270 273 277 280 282 283 284 285 286 287 287 288 288 289 289 288 287 287 286 286 286 285 285 285 286 287 287 287 286 286 286 286 286 285 283 280 277 275 275 275 277 279 280 280 279 278 275 272 269 265 263 262 262 262 261 259 257
235 225 218 214 213 216 217 214 214 219 221 217 214 214 214 218 222 226 231 239 245 249 252 256 261 265 268 271 275 279 281 282 284 286 288 289 290 291 291 292 292 292 291 290 289 288 288 288 287 286 287 287 287 287 285 284 283 283 283 283 282 281 279 278 277 277 277 278 279 279 279 278 276 273 271 269 268 266 265 265 265 264 263 260 258
207 201 199 201 204 206 207 209 212 211 208 207 211 214 216 220 224 228 234 241 247 252 257 262 266 270 273 276 279 281 283 285 288 290 291 291 292 292 292 293 293 292 292 291 290 290 289 288 288 288 289 288 287 284 280 279 279 280 279 279 279 278 278 278 278 278 279 278 278 278 277 276 274 272 271 271 270 269 269 268 268 267 265 263 260
174 176 184 193 196 196 200 209 211 205 202 205 212 217 222 226 230 233 239 247 253 258 263 267 270 273 276 278 281 284 287 289 290 290 291 292 293 294 294 294 294 295 295 294 293 292 291 290 291 291 290 288 285 282 278 276 276 277 277 279 280 281 281 280 279 279 278 277 277 277 276 276 276 275 275 275 274 273 272 269 268 267 265 261 257
155 166 176 185 189 192 199 206 203 199 201 209 216 222 226 227 230 239 249 255 259 262 265 268 271 274 277 281 285 288 290 290 290 292 294 296 297 297 298 299 301 302 301 300 298 296 294 294 294 293 292 290 286 281 276 274 274 276 280 284 286 285 283 280 278 277 277 278 278 278 278 278 278 278 278 278 277 275 271 268 266 263 259 255 249
154 164 169 176 184 189 194 197 195 196 204 213 220 225 230 233 240 250 255 256 255 257 260 265 270 276 282 287 289 290 290 290 292 294 297 300 303 305 308 310 310 310 308 305 302 299 297 296 296 296 294 292 287 279 272 270 272 278 284 288 289 285 280 277 277 277 279 280 280 279 278 278 278 280 281 280 277 273 269 266 262 257 253 248 240
159 168 174 182 188 190 192 194 196 200 206 213 220 227 233 237 242 245 244 242 245 250 256 264 274 281 287 288 289 289 291 293 297 300 304 309 313 315 316 316 316 316 314 310 306 303 300 299 298 297 295 292 287 279 272 269 273 279 285 288 285 279 275 276 279 280 281 280 279 278 279 279 280 282 281 277 273 270 267 264 261 256 249 239 231
167 173 180 187 190 191 191 192 196 202 209 216 222 226 229 230 230 229 230 234 240 247 257 271 279 282 284 286 288 291 296 301 306 309 312 315 317 318 318 319 321 322 320 315 310 307 305 303 302 300 297 293 288 281 277 276 278 282 284 283 278 275 277 282 284 284 282 280 279 280 281 282 281 280 276 271 268 266 265 263 261 253 242 231 222
170 175 181 185 187 188 192 197 204 211 216 218 217 215 214 214 217 221 226 231 238 253 269 276 278 279 282 288 293 298 304 309 312 314 316 318 319 320 322 325 328 328 325 320 316 313 310 308 306 303 298 294 290 286 286 285 284 284 283 276 269 275 286 292 294 292 288 285 285 285 284 282 278 274 269 265 262 261 263 261 252 237 222 210 200
177 182 186 189 192 197 203 209 211 211 209 205 201 201 203 209 214 218 223 233 252 266 271 273 275 280 288 296 302 307 311 314 316 318 320 321 323 326 329 332 334 334 331 327 323 319 315 312 308 304 300 297 295 296 298 295 290 285 275 259 263 287 299 302 301 298 295 293 293 289 284 278 272 267 265 258 242 216 183 165 159 160 166 169 172
193 195 197 199 203 206 207 206 202 198 195 194 195 199 203 205 206 210 226 247 259 265 269 274 282 292 301 307 310 314 317 319 320 322 324 326 329 332 335 338 339 339 336 333 331 327 322 316 312 310 308 303 302 306 311 310 301 281 250 241 276 301 304 304 305 305 303 301 297 285 269 259 257 265 275 249 204 167 142 137 145 150 156 161 167
198 199 201 203 205 202 197 193 190 189 190 193 196 196 193 191 197 218 240 250 255 263 274 289 306 315 316 315 316 318 321 323 324 326 329 332 335 338 340 342 343 343 342 339 337 334 328 321 317 315 310 306 309 317 320 316 301 261 230 246 288 299 299 305 315 318 316 307 288 253 215 191 175 44 14 256 193 174 164 168 178 180 175 172 171
185 187 192 194 193 189 186 184 185 187 190 192 190 184 177 182 205 227 238 245 254 274 299 319 327 327 323 320 321 324 326 328 329 332 334 337 339 342 345 346 348 348 347 344 342 341 336 328 320 315 310 310 317 321 320 312 282 234 223 253 287 295 301 315 326 330 329 316 205 167 150 125 101 92 87 82 136 172 169 168 171 173 172 169 166
168 175 180 180 179 181 183 184 185 187 188 185 178 173 179 198 214 226 236 246 266 303 324 329 329 326 324 325 327 329 331 333 334 336 338 340 342 345 347 349 351 352 351 350 348 346 343 334 322 314 311 315 320 323 319 303 253 218 220 252 289 300 310 328 342 351 10 106 122 127 126 114 103 101 100 93 94 128 152 152 151 152 153 154 155
166 171 174 173 175 179 183 185 187 186 181 176 176 184 194 204 213 224 236 254 287 316 324 327 327 325 326 328 330 331 333 334 336 338 341 343 346 348 349 351 353 354 355 354 353 352 348 341 328 314 311 314 319 322 317 283 222 208 212 236 304 325 327 351 14 40 100 117 112 112 112 105 97 95 100 103 103 111 130 141 143 142 144 148 153
170 173 174 175 177 182 185 187 187 184 179 180 187 194 200 206 214 225 243 266 292 310 319 323 324 325 328 332 333 333 332 333 335 338 341 344 347 350 351 352 354 356 357 357 357 356 353 347 336 320 311 311 314 319 313 255 203 201 204 199 50 21 18 30 39 64 113 119 114 112 108 98 87 84 92 106 113 117 127 138 144 145 147 152 157
176 180 182 183 184 187 187 188 187 187 187 191 196 201 206 211 215 225 244 264 281 299 310 315 320 325 330 333 333 333 333 332 333 335 339 343 347 351 352 353 354 357 359 360 359 359 357 353 346 331 313 305 305 311 308 257 196 196 201 191 123 49 45 48 51 85 123 125 118 113 107 96 86 86 98 110 119 126 132 139 146 149 151 153 155
191 192 193 195 197 197 194 192 193 196 199 202 204 208 213 216 218 228 242 254 269 288 299 308 316 323 328 331 333 334 333 333 333 335 337 340 344 349 352 353 354 356 360 1 1 360 359 358 353 342 319 302 298 301 300 258 199 192 196 193 170 100 69 62 71 109 131 131 124 117 113 109 106 106 110 114 120 127 133 138 142 145 148 151 153
223 215 209 208 210 211 209 206 205 206 208 211 213 215 218 220 225 232 241 250 263 277 289 302 312 319 325 329 332 333 334 334 335 336 337 339 342 345 349 352 354 356 359 1 1 0 1 1 359 353 336 309 295 292 291 245 202 191 187 190 194 170 115 88 95 124 137 137 131 124 123 125 126 122 120 122 126 130 136 142 146 148 151 155 158
249 238 229 223 221 223 223 222 220 218 218 219 220 221 223 225 229 236 244 251 259 271 284 295 305 314 322 327 330 332 334 334 335 336 338 340 341 343 346 349 352 354 357 0 1 1 2 3 2 359 351 328 294 275 269 235 207 194 181 179 196 193 154 115 113 133 143 146 146 141 138 138 138 136 135 136 138 140 145 154 160 163 170 177 180
Height
5710 5711 5711 5712 5712 5713 5713 5713 5713 5714 5714 5714 5715 5715 5715 5716 5716 5717 5718 5719 5719 5719 5719 5719 5719 5720 5720 5721 5722 5722 5723 5724 5724 5725 5726 5726 5726 5727 5727 5727 5727 5727 5728 5728 5728 5729 5729 5730 5730 5731 5731 5732 5732 5733 5733 5734 5734 5735 5736 5737 5738 5739 5741 5742 5744 5745 5744 5744 5744 5744 5744 5744 5744 5744 5745 5745 5745 5746 5746 5747 5748 5749 5749 5750 5750
5707 5707 5708 5709 5709 5710 5711 5710 5710 5710 5711 5711 5712 5712 5713 5713 5713 5714 5715 5716 5717 5717 5717 5717 5717 5716 5717 5717 5718 5718 5719 5719 5720 5721 5721 5722 5722 5723 5723 5723 5723 5724 5724 5724 5725 5725 5726 5726 5726 5727 5727 5728 5728 5729 5729 5729 5730 5730 5731 5732 5733 5734 5735 5737 5738 5739 5739 5739 5739 5740 5740 5740 5740 5740 5740 5741 5740 5741 5741 5742 5743 5743 5744 5745 5745
5704 5704 5705 5705 5706 5706 5707 5708 5708 5708 5708 5708 5708 5709 5709 5710 5710 5711 5712 5713 5713 5714 5715 5715 5714 5714 5714 5714 5714 5714 5715 5715 5716 5716 5717 5717 5718 5718 5719 5719 5719 5720 5720 5720 5720 5721 5721 5722 5722 5723 5723 5724 5724 5724 5725 5725 5725 5725 5725 5726 5727 5728 5729 5730 5732 5733 5734 5734 5733 5734 5734 5735 5734 5735 5735 5736 5736 5736 5736 5736 5737 5737 5738 5739 5740
5700 5700 5700 5701 5701 5702 5703 5704 5704 5704 5704 5705 5705 5705 5705 5706 5707 5708 5709 5709 5710 5711 5711 5712 5712 5711 5711 5711 5711 5711 5711 5711 5712 5712 5712 5712 5713 5714 5714 5715 5715 5715 5716 5716 5716 5716 5716 5717 5717 5718 5718 5719 5719 5719 5720 5720 5721 5721 5721 5721 5721 5721 5722 5723 5725 5726 5728 5728 5728 5728 5729 5729 5728 5728 5729 5730 5731 5731 5731 5731 5731 5732 5732 5733 5734
5695 5696 5696 5696 5697 5698 5699 5699 5700 5700 5700 5700 5701 5701 5702 5703 5703 5704 5705 5706 5706 5707 5708 5708 5708 5708 5708 5708 5708 5708 5708 5708 5708 5708 5708 5708 5708 5709 5709 5710 5710 5711 5711 5711 5712 5712 5712 5712 5712 5712 5713 5713 5713 5714 5714 5715 5715 5716 5716 5716 5716 5716 5716 5717 5717 5719 5721 5722 5722 5722 5723 5723 5722 5722 5722 5722 5723 5724 5725 5725 5725 5726 5726 5727 5728
5690 5691 5691 5691 5692 5693 5694 5695 5696 5696 5696 5696 5696 5697 5698 5699 5699 5700 5701 5701 5702 5702 5703 5703 5704 5704 5704 5704 5705 5705 5705 5705 5704 5704 5704 5704 5704 5704 5704 5705 5705 5705 5706 5706 5707 5707 5707 5707 5707 5707 5708 5708 5708 5708 5708 5709 5709 5710 5710 5710 5710 5711 5711 5711 5711 5712 5713 5715 5716 5716 5716 5716 5717 5716 5715 5715 5716 5717 5717 5718 5718 5719 5720 5721 5721
5686 5686 5687 5687 5688 5688 5689 5689 5690 5691 5691 5691 5692 5693 5694 5694 5695 5696 5696 5697 5696 5695 5696 5698 5698 5699 5699 5700 5700 5701 5701 5701 5701 5701 5701 5701 5700 5700 5700 5700 5700 5700 5701 5701 5701 5701 5702 5702 5702 5702 5703 5703 5702 5703 5703 5703 5703 5703 5704 5704 5704 5705 5705 5705 5706 5706 5707 5708 5709 5709 5709 5709 5710 5710 5709 5708 5709 5709 5709 5710 5711 5711 5712 5713 5714
5680 5681 5681 5682 5683 5683 5684 5684 5685 5686 5686 5687 5687 5688 5689 5689 5690 5691 5691 5691 5690 5689 5690 5692 5692 5694 5695 5695 5695 5696 5697 5697 5696 5696 5696 5696 5696 5696 5695 5695 5695 5695 5696 5696 5696 5696 5697 5697 5697 5697 5697 5697 5697 5697 5697 5698 5698 5698 5698 5698 5698 5699 5699 5699 5700 5700 5701 5701 5702 5703 5703 5702 5702 5702 5702 5702 5702 5702 5702 5703 5704 5704 5704 5705 5706
5674 5674 5675 5676 5676 5677 5678 5678 5679 5680 5681 5682 5682 5682 5683 5684 5684 5685 5685 5685 5684 5684 5685 5686 5686 5687 5689 5689 5690 5691 5691 5691 5691 5691 5691 5691 5691 5691 5691 5690 5690 5690 5691 5691 5691 5691 5692 5692 5692 5692 5692 5692 5692 5692 5692 5692 5692 5693 5693 5693 5693 5693 5693 5693 5694 5694 5694 5695 5696 5696 5697 5697 5695 5695 5695 5696 5696 5696 5696 5695 5696 5697 5697 5697 5698
5667 5668 5668 5669 5670 5671 5672 5672 5673 5673 5675 5676 5676 5677 5677 5678 5679 5679 5680 5680 5679 5679 5680 5681 5680 5681 5682 5683 5684 5684 5684 5684 5684 5685 5685 5685 5685 5685 5685 5685 5685 5685 5685 5686 5686 5686 5686 5686 5687 5686 5686 5687 5687 5687 5687 5687 5687 5687 5688 5688 5687 5687 5687 5687 5687 5687 5687 5688 5688 5689 5690 5691 5690 5688 5688 5689 5689 5689 5689 5689 5689 5689 5689 5690 5690
5660 5661 5661 5662 5663 5664 5665 5665 5666 5666 5667 5668 5669 5670 5671 5672 5673 5673 5674 5674 5674 5674 5675 5675 5674 5674 5676 5677 5678 5677 5677 5677 5678 5679 5679 5679 5679 5679 5679 5679 5679 5679 5679 5680 5680 5680 5680 5681 5681 5681 5681 5681 5681 5682 5682 5682 5682 5682 5682 5682 5682 5682 5682 5681 5681 5681 5681 5681 5682 5682 5683 5683 5683 5682 5681 5681 5682 5682 5682 5682 5682 5682 5681 5681 5682
5653 5654 5654 5655 5656 5657 5658 5658 5659 5660 5660 5661 5661 5662 5664 5665 5666 5667 5667 5667 5667 5668 5669 5669 5668 5668 5669 5670 5670 5671 5671 5672 5672 5673 5673 5673 5673 5673 5673 5674 5674 5674 5674 5674 5674 5674 5675 5675 5675 5675 5675 5675 5675 5675 5675 5676 5676 5676 5676 5676 5676 5676 5675 5675 5675 5675 5675 5675 5675 5675 5675 5675 5676 5676 5675 5674 5674 5674 5674 5674 5674 5674 5674 5673 5674
5646 5646 5647 5648 5648 5649 5650 5651 5652 5653 5653 5654 5655 5656 5657 5658 5659 5659 5660 5660 5660 5661 5662 5662 5662 5662 5663 5664 5664 5664 5664 5665 5665 5666 5666 5666 5666 5667 5667 5668 5668 5667 5667 5667 5668 5668 5668 5668 5668 5668 5668 5668 5668 5668 5669 5669 5670 5670 5670 5670 5670 5670 5669 5669 5669 5668 5668 5668 5668 5668 5668 5667 5668 5669 5668 5666 5666 5666 5666 5666 5666 5666 5666 5666 5665
5638 5638 5639 5640 5640 5641 5642 5643 5644 5645 5646 5647 5648 5649 5650 5651 5652 5652 5652 5652 5653 5654 5655 5655 5655 5655 5656 5657 5658 5658 5657 5657 5657 5658 5658 5659 5660 5660 5661 5661 5661 5661 5661 5661 5661 5661 5661 5661 5661 5661 5661 5661 5661 5661 5662 5662 5663 5663 5664 5663 5663 5663 5663 5662 5662 5661 5660 5660 5660 5660 5660 5659 5659 5660 5660 5659 5657 5657 5656 5656 5656 5657 5657 5658 5658
5629 5629 5630 5631 5632 5633 5634 5636 5637 5638 5638 5639 5640 5642 5643 5644 5644 5644 5645 5645 5646 5647 5648 5648 5648 5648 5648 5649 5650 5651 5651 5651 5650 5650 5651 5652 5653 5653 5654 5654 5654 5654 5653 5653 5653 5653 5654 5654 5654 5654 5654 5654 5654 5653 5654 5655 5655 5656 5657 5657 5656 5656 5656 5655 5654 5654 5653 5652 5652 5651 5651 5651 5650 5650 5651 5650 5649 5648 5647 5646 5646 5647 5648 5649 5649
5621 5621 5621 5622 5623 5624 5626 5628 5629 5630 5631 5632 5633 5634 5635 5636 5636 5637 5637 5638 5639 5640 5640 5640 5640 5640 5641 5642 5643 5644 5644 5644 5644 5644 5644 5645 5645 5646 5647 5646 5646 5646 5646 5645 5645 5646 5646 5646 5647 5647 5648 5648 5647 5646 5646 5647 5648 5648 5649 5649 5649 5648 5648 5647 5646 5646 5645 5643 5643 5642 5641 5641 5640 5640 5640 5639 5639 5637 5636 5637 5636 5635 5636 5638 5640
5612 5612 5613 5614 5615 5616 5617 5619 5620 5621 5622 5623 5625 5626 5626 5627 5628 5629 5629 5630 5631 5632 5632 5632 5632 5633 5634 5635 5636 5637 5636 5636 5636 5636 5637 5638 5638 5639 5639 5639 5638 5638 5637 5637 5638 5638 5638 5638 5639 5639 5640 5640 5640 5639 5639 5639 5640 5640 5641 5641 5641 5641 5641 5639 5638 5637 5636 5635 5634 5633 5632 5631 5630 5629 5628 5628 5627 5626 5625 5626 5626 5623 5624 5626 5628
5603 5604 5605 5606 5607 5608 5609 5610 5612 5612 5613 5615 5616 5617 5618 5619 5620 5620 5622 5623 5623 5624 5624 5624 5624 5625 5627 5628 5628 5628 5629 5629 5629 5629 5629 5630 5630 5631 5631 5631 5631 5630 5630 5630 5630 5630 5630 5630 5630 5631 5632 5632 5632 5632 5631 5631 5632 5632 5632 5633 5633 5633 5632 5631 5629 5628 5627 5625 5624 5623 5623 5622 5620 5619 5617 5616 5616 5613 5613 5614 5614 5613 5613 5614 5615
5594 5596 5598 5598 5599 5600 5601 5602 5603 5604 5605 5606 5607 5608 5610 5611 5611 5612 5614 5615 5616 5617 5617 5616 5616 5617 5619 5620 5620 5621 5621 5622 5622 5622 5622 5622 5622 5623 5623 5623 5623 5623 5623 5623 5623 5623 5623 5623 5623 5623 5623 5623 5623 5623 5623 5623 5623 5624 5624 5624 5625 5624 5623 5621 5620 5619 5617 5616 5615 5614 5613 5612 5611 5609 5607 5605 5604 5601 5601 5601 5601 5602 5604 5603 5602
5587 5588 5590 5590 5591 5591 5592 5593 5595 5596 5597 5598 5599 5600 5601 5602 5603 5605 5606 5608 5609 5610 5610 5609 5609 5610 5611 5612 5613 5614 5614 5614 5614 5614 5614 5614 5614 5615 5616 5616 5616 5616 5617 5616 5616 5616 5615 5615 5615 5615 5615 5615 5615 5615 5615 5615 5615 5615 5615 5615 5615 5614 5613 5611 5610 5609 5607 5607 5606 5604 5603 5602 5600 5598 5596 5594 5592 5590 5589 5589 5588 5590 5592 5593 5592
5579 5580 5581 5582 5582 5583 5584 5585 5586 5587 5589 5590 5591 5592 5593 5594 5595 5597 5599 5600 5601 5602 5602 5603 5603 5604 5604 5605 5606 5606 5606 5606 5606 5606 5606 5607 5607 5608 5609 5609 5609 5610 5610 5609 5609 5609 5608 5608 5608 5608 5607 5607 5607 5607 5607 5607 5606 5607 5607 5606 5605 5604 5602 5601 5600 5598 5597 5597 5596 5594 5593 5591 5589 5587 5584 5582 5580 5578 5577 5577 5577 5578 5580 5581 5581
5571 5572 5573 5574 5574 5574 5575 5576 5578 5579 5580 5582 5583 5584 5585 5586 5588 5589 5591 5592 5593 5594 5595 5596 5596 5597 5598 5598 5599 5600 5599 5599 5599 5600 5600 5601 5602 5602 5603 5603 5602 5603 5603 5603 5602 5601 5601 5601 5600 5600 5599 5599 5599 5599 5599 5598 5598 5598 5597 5596 5595 5594 5591 5590 5589 5587 5586 5585 5584 5583 5581 5579 5577 5575 5572 5570 5569 5567 5566 5565 5566 5567 5569 5570 5571
5562 5564 5565 5565 5565 5565 5566 5567 5569 5571 5572 5573 5575 5576 5577 5579 5581 5582 5583 5584 5586 5587 5588 5589 5589 5590 5591 5592 5593 5594 5594 5594 5594 5595 5595 5595 5596 5596 5596 5596 5596 5596 5596 5596 5595 5594 5593 5592 5592 5592 5591 5591 5591 5590 5590 5589 5589 5588 5587 5586 5584 5583 5581 5580 5578 5576 5575 5573 5572 5571 5569 5566 5564 5562 5560 5559 5557 5556 5556 5555 5555 5556 5558 5560 5561
5553 5555 5555 5556 5556 5556 5557 5559 5560 5562 5564 5565 5567 5568 5569 5571 5573 5574 5575 5577 5579 5580 5581 5582 5583 5584 5585 5586 5587 5588 5589 5589 5589 5589 5589 5589 5589 5589 5589 5589 5589 5589 5589 5589 5587 5587 5586 5585 5584 5584 5583 5583 5582 5582 5581 5580 5579 5578 5576 5575 5573 5572 5571 5569 5567 5565 5563 5562 5560 5558 5556 5553 5551 5550 5549 5548 5547 5546 5546 5546 5546 5546 5547 5549 5551
5544 5545 5545 5546 5547 5547 5548 5550 5551 5553 5555 5557 5558 5560 5561 5563 5565 5567 5568 5571 5573 5574 5575 5576 5577 5579 5580 5581 5582 5582 5583 5584 5584 5584 5583 5583 5582 5582 5582 5582 5582 5582 5581 5581 5580 5579 5579 5578 5577 5576 5575 5574 5573 5573 5572 5570 5568 5567 5565 5564 5562 5561 5559 5558 5556 5554 5552 5550 5548 5546 5543 5541 5539 5539 5538 5537 5537 5536 5536 5536 5536 5536 5537 5538 5540
5534 5535 5535 5536 5537 5537 5539 5540 5542 5544 5546 5548 5550 5552 5554 5556 5559 5560 5562 5564 5567 5568 5569 5570 5572 5574 5575 5576 5576 5577 5578 5578 5578 5578 5578 5577 5576 5576 5575 5575 5574 5573 5573 5572 5572 5571 5570 5569 5568 5567 5566 5565 5564 5563 5562 5560 5558 5557 5555 5553 5551 5550 5548 5546 5544 5542 5540 5538 5536 5534 5532 5531 5530 5529 5529 5528 5528 5527 5527 5527 5527 5527 5527 5528 5530
5524 5526 5526 5527 5528 5529 5530 5532 5534 5536 5538 5540 5543 5545 5548 5550 5553 5555 5556 5558 5561 5563 5564 5566 5568 5569 5570 5571 5571 5572 5572 5572 5572 5572 5572 5571 5571 5570 5569 5568 5567 5566 5565 5564 5564 5562 5561 5560 5559 5558 5557 5555 5554 5552 5550 5549 5547 5546 5544 5541 5539 5538 5537 5534 5532 5530 5528 5527 5525 5524 5523 5521 5521 5521 5520 5519 5519 5519 5518 5517 5518 5518 5518 5519 5521
5516 5518 5519 5520 5522 5523 5525 5526 5528 5530 5532 5535 5538 5541 5544 5546 5548 5550 5552 5554 5557 5559 5561 5563 5565 5565 5566 5567 5567 5567 5568 5567 5567 5567 5566 5565 5564 5563 5562 5561 5560 5559 5558 5556 5555 5553 5552 5551 5549 5548 5546 5545 5543 5541 5540 5538 5536 5534 5532 5530 5528 5527 5525 5523 5521 5519 5518 5517 5516 5515 5514 5513 5512 5512 5512 5511 5511 5510 5509 5508 5509 5510 5510 5511 5513
5510 5512 5514 5515 5517 5519 5520 5522 5523 5526 5529 5531 5534 5537 5540 5542 5544 5546 5549 5552 5555 5556 5558 5560 5561 5562 5563 5563 5563 5563 5563 5562 5562 5561 5560 5559 5558 5557 5556 5555 5553 5552 5550 5548 5547 5545 5544 5542 5540 5538 5537 5535 5534 5532 5530 5528 5526 5524 5521 5519 5517 5515 5514 5512 5511 5510 5509 5508 5507 5507 5505 5505 5505 5504 5503 5503 5502 5501 5500 5500 5501 5502 5503 5503 5505
5504 5507 5509 5511 5513 5515 5516 5518 5521 5523 5526 5528 5531 5534 5536 5538 5540 5543 5546 5549 5551 5553 5555 5557 5558 5559 5559 5559 5559 5558 5557 5557 5556 5555 5554 5552 5551 5550 5549 5548 5546 5544 5543 5541 5539 5537 5536 5534 5531 5529 5528 5526 5525 5523 5520 5518 5516 5514 5511 5509 5507 5505 5504 5503 5502 5501 5500 5500 5499 5499 5498 5498 5497 5496 5495 5494 5493 5492 5492 5493 5494 5495 5495 5496 5498
5500 5503 5505 5507 5509 5511 5513 5516 5518 5521 5523 5525 5528 5530 5533 5535 5537 5540 5543 5546 5548 5550 5551 5553 5554 5555 5555 5554 5554 5554 5553 5552 5551 5550 5548 5547 5546 5544 5543 5542 5540 5537 5535 5533 5531 5529 5527 5525 5523 5521 5519 5517 5516 5513 5511 5509 5506 5504 5502 5500 5498 5497 5495 5495 5494 5494 5493 5493 5492 5491 5491 5490 5489 5488 5487 5486 5485 5485 5485 5486 5487 5487 5488 5489 5490
5496 5498 5500 5503 5506 5508 5511 5513 5516 5519 5521 5523 5525 5527 5530 5533 5536 5538 5540 5543 5545 5547 5548 5549 5550 5550 5550 5550 5550 5549 5548 5547 5546 5544 5543 5542 5540 5539 5537 5536 5533 5531 5529 5526 5524 5521 5519 5517 5515 5513 5511 5509 5507 5505 5502 5499 5497 5496 5494 5492 5491 5490 5488 5488 5487 5487 5486 5486 5485 5484 5483 5482 5482 5481 5480 5479 5479 5478 5478 5479 5479 5480 5481 5482 5483
5492 5494 5497 5500 5503 5507 5509 5512 5515 5517 5519 5521 5523 5526 5528 5531 5534 5536 5538 5540 5542 5544 5545 5545 5546 5546 5546 5546 5545 5545 5544 5543 5541 5540 5539 5537 5536 5534 5532 5530 5527 5525 5522 5519 5516 5513 5511 5508 5506 5504 5502 5500 5499 5496 5494 5491 5489 5488 5487 5486 5485 5484 5483 5482 5481 5481 5480 5479 5478 5477 5476 5475 5475 5474 5474 5473 5473 5472 5472 5472 5472 5473 5474 5475 5477
5488 5491 5495 5498 5502 5505 5508 5511 5514 5516 5518 5520 5522 5524 5527 5529 5532 5534 5536 5538 5539 5540 5541 5541 5542 5542 5542 5542 5542 5541 5540 5539 5538 5536 5535 5533 5532 5529 5527 5524 5521 5518 5515 5512 5508 5505 5502 5500 5497 5496 5493 5491 5490 5488 5486 5484 5483 5482 5481 5480 5479 5478 5477 5476 5476 5475 5474 5473 5472 5471 5470 5469 5468 5468 5467 5467 5467 5466 5466 5466 5465 5465 5466 5467 5469
5488 5491 5494 5498 5501 5505 5507 5510 5512 5514 5516 5518 5521 5523 5526 5528 5530 5532 5534 5535 5536 5537 5537 5538 5538 5539 5539 5539 5539 5538 5537 5536 5535 5533 5532 5530 5527 5525 5522 5519 5515 5512 5508 5504 5500 5497 5494 5491 5489 5487 5485 5483 5481 5480 5479 5478 5477 5477 5476 5475 5474 5473 5472 5471 5470 5469 5468 5467 5466 5465 5464 5464 5463 5462 5462 5461 5461 5460 5459 5459 5458 5458 5459 5460 5461
5488 5491 5495 5498 5501 5503 5506 5508 5510 5513 5515 5517 5520 5522 5524 5526 5528 5530 5531 5532 5533 5534 5534 5535 5536 5536 5537 5536 5536 5535 5534 5533 5531 5529 5527 5525 5523 5520 5517 5513 5509 5506 5502 5498 5493 5490 5486 5483 5481 5479 5477 5476 5475 5474 5473 5473 5472 5472 5471 5470 5469 5468 5467 5466 5465 5464 5463 5462 5461 5460 5460 5459 5458 5457 5456 5455 5455 5454 5453 5452 5452 5452 5453 5454 5455
5490 5493 5495 5498 5500 5502 5504 5507 5509 5512 5514 5516 5519 5521 5522 5524 5526 5528 5529 5530 5531 5531 5532 5533 5534 5534 5534 5533 5533 5532 5531 5529 5527 5525 5523 5520 5518 5514 5511 5507 5504 5500 5495 5491 5487 5483 5480 5477 5474 5473 5471 5470 5469 5468 5468 5468 5468 5468 5466 5465 5465 5464 5462 5461 5460 5459 5458 5458 5457 5456 5455 5454 5453 5452 5451 5450 5449 5448 5447 5447 5447 5447 5448 5449 5450
5491 5493 5496 5498 5500 5502 5504 5506 5509 5511 5513 5516 5518 5519 5521 5523 5524 5526 5527 5528 5529 5530 5531 5532 5532 5532 5531 5531 5530 5529 5527 5525 5523 5521 5519 5516 5513 5510 5506 5503 5499 5494 5490 5485 5481 5478 5474 5472 5470 5468 5466 5465 5465 5464 5464 5464 5464 5463 5462 5461 5460 5459 5458 5457 5456 5456 5455 5454 5453 5452 5451 5450 5449 5448 5447 5446 5444 5443 5443 5442 5442 5442 5443 5444 5446
5492 5494 5496 5498 5500 5502 5504 5507 5509 5511 5513 5515 5516 5518 5519 5521 5522 5524 5525 5526 5528 5528 5529 5529 5529 5529 5529 5528 5527 5526 5524 5522 5520 5517 5515 5512 5509 5506 5503 5499 5494 5490 5485 5480 5477 5473 5470 5467 5465 5464 5462 5461 5461 5461 5460 5460 5459 5459 5458 5457 5456 5456 5455 5454 5453 5453 5452 5450 5449 5448 5447 5446 5445 5444 5443 5442 5441 5440 5439 5439 5438 5438 5439 5440 5442
5493 5495 5497 5499 5501 5503 5505 5507 5509 5510 5512 5513 5515 5516 5518 5520 5521 5522 5524 5525 5526 5526 5527 5527 5527 5527 5526 5525 5524 5523 5521 5519 5517 5515 5512 5509 5506 5503 5499 5495 5490 5486 5481 5477 5473 5470 5466 5463 5461 5460 5459 5458 5458 5457 5457 5456 5455 5454 5454 5453 5453 5453 5452 5451 5451 5450 5448 5447 5446 5444 5443 5442 5442 5441 5440 5440 5439 5438 5437 5436 5436 5436 5436 5438 5441
5495 5497 5498 5500 5502 5503 5505 5507 5508 5509 5511 5512 5514 5515 5517 5519 5520 5521 5522 5523 5524 5524 5525 5525 5525 5525 5524 5523 5522 5520 5519 5517 5514 5512 5509 5506 5503 5500 5496 5491 5487 5482 5478 5474 5470 5466 5463 5460 5458 5457 5456 5455 5455 5454 5453 5452 5451 5451 5451 5451 5451 5451 5450 5449 5448 5447 5446 5444 5442 5441 5440 5440 5440 5439 5439 5438 5437 5436 5436 5436 5436 5436 5437 5439 5442
5495 5497 5498 5500 5502 5503 5504 5505 5507 5508 5510 5511 5513 5515 5516 5518 5519 5520 5521 5522 5523 5523 5523 5523 5523 5522 5522 5521 5519 5518 5516 5514 5512 5509 5507 5504 5500 5497 5492 5488 5483 5479 5475 5471 5467 5463 5460 5457 5455 5454 5453 5453 5452 5451 5451 5450 5449 5448 5449 5449 5449 5449 5448 5447 5447 5445 5443 5442 5440 5440 5439 5439 5439 5438 5437 5437 5436 5436 5436 5437 5438 5439 5440 5442 5445
5495 5496 5498 5499 5500 5502 5503 5504 5506 5507 5509 5511 5513 5514 5515 5516 5517 5519 5520 5521 5521 5522 5522 5521 5521 5520 5519 5519 5518 5516 5514 5512 5510 5507 5504 5501 5498 5494 5490 5485 5481 5477 5472 5468 5464 5460 5457 5454 5453 5452 5451 5451 5450 5449 5448 5447 5447 5447 5447 5448 5448 5447 5447 5446 5445 5443 5441 5440 5439 5439 5439 5439 5438 5438 5437 5437 5436 5436 5437 5438 5439 5441 5442 5445 5447
5494 5495 5497 5498 5499 5501 5502 5504 5505 5507 5508 5510 5512 5513 5514 5515 5517 5518 5519 5520 5520 5520 5519 5519 5518 5518 5517 5517 5516 5514 5512 5510 5507 5505 5502 5499 5495 5492 5488 5484 5479 5475 5470 5466 5462 5459 5455 5453 5451 5450 5450 5449 5448 5447 5446 5445 5445 5445 5446 5447 5447 5446 5445 5445 5443 5441 5440 5439 5439 5439 5439 5439 5439 5438 5438 5437 5437 5438 5438 5439 5440 5442 5444 5446 5449
5494 5495 5496 5498 5499 5501 5502 5503 5505 5506 5507 5509 5510 5512 5513 5515 5516 5517 5518 5518 5518 5517 5517 5517 5516 5516 5516 5515 5514 5512 5510 5508 5506 5503 5500 5497 5494 5490 5486 5482 5478 5474 5469 5465 5461 5458 5454 5452 5450 5449 5448 5447 5446 5445 5444 5444 5444 5444 5445 5446 5446 5445 5445 5444 5442 5441 5440 5440 5439 5440 5440 5440 5440 5439 5439 5439 5439 5439 5440 5440 5442 5444 5446 5449 5452
5494 5495 5496 5498 5499 5500 5502 5503 5504 5505 5506 5508 5510 5511 5513 5514 5515 5516 5516 5516 5515 5515 5515 5515 5515 5515 5514 5513 5512 5510 5508 5506 5504 5501 5498 5495 5492 5489 5485 5481 5477 5473 5469 5465 5461 5457 5454 5451 5449 5448 5447 5446 5445 5444 5444 5443 5443 5444 5445 5445 5445 5445 5445 5443 5442 5441 5440 5440 5440 5441 5441 5441 5441 5441 5441 5441 5442 5442 5443 5444 5445 5447 5449 5452 5455
5494 5495 5496 5497 5498 5500 5501 5502 5503 5504 5506 5507 5509 5511 5512 5513 5514 5514 5514 5514 5514 5514 5514 5514 5514 5514 5513 5512 5510 5508 5507 5504 5502 5500 5497 5494 5491 5488 5484 5480 5476 5472 5468 5464 5460 5457 5454 5451 5448 5447 5446 5445 5445 5444 5443 5443 5443 5443 5444 5445 5445 5445 5445 5444 5442 5441 5441 5441 5442 5442 5443 5443 5443 5443 5443 5443 5444 5445 5446 5447 5449 5450 5453 5455 5457
5494 5495 5496 5497 5498 5499 5500 5501 5502 5504 5505 5507 5508 5510 5511 5511 5511 5512 5512 5512 5513 5513 5513 5513 5512 5512 5511 5510 5508 5507 5505 5503 5501 5498 5496 5493 5490 5487 5484 5480 5476 5472 5468 5464 5460 5457 5454 5451 5448 5446 5445 5445 5444 5444 5443 5442 5442 5443 5444 5445 5445 5445 5445 5444 5443 5442 5442 5443 5444 5444 5445 5445 5446 5446 5446 5446 5447 5448 5449 5450 5452 5454 5455 5458 5460
5494 5495 5495 5496 5497 5498 5499 5500 5502 5503 5505 5506 5507 5508 5509 5509 5510 5510 5511 5511 5511 5511 5511 5511 5511 5510 5509 5508 5507 5505 5503 5501 5499 5497 5495 5492 5489 5486 5483 5480 5476 5472 5468 5464 5461 5457 5454 5451 5448 5446 5445 5444 5444 5443 5443 5442 5442 5443 5444 5444 5445 5445 5445 5445 5444 5444 5444 5445 5446 5446 5447 5448 5448 5449 5449 5449 5450 5451 5452 5453 5455 5456 5458 5460 5462
5494 5495 5495 5496 5497 5498 5499 5500 5501 5503 5504 5505 5506 5507 5507 5507 5508 5508 5509 5509 5510 5510 5510 5509 5509 5508 5507 5506 5505 5503 5502 5500 5498 5496 5494 5491 5488 5486 5483 5480 5476 5472 5468 5465 5461 5458 5455 5452 5449 5446 5445 5444 5443 5443 5443 5442 5442 5443 5444 5444 5445 5445 5446 5446 5446 5446 5446 5447 5448 5448 5449 5449 5450 5451 5451 5452 5453 5454 5455 5456 5458 5459 5461 5463 5464
5494 5494 5495 5496 5497 5498 5499 5500 5501 5502 5503 5504 5504 5505 5505 5505 5506 5507 5507 5508 5508 5508 5508 5508 5507 5506 5505 5504 5503 5502 5500 5499 5497 5495 5493 5490 5488 5485 5482 5479 5476 5472 5469 5466 5462 5459 5456 5452 5450 5447 5445 5443 5443 5443 5442 5442 5442 5443 5443 5444 5445 5445 5446 5447 5447 5447 5447 5448 5449 5450 5451 5451 5452 5453 5453 5454 5455 5457 5458 5459 5460 5461 5463 5464 5465